sat.trackr.live / text

‹ back to catalog

STARLINK-5533

NORAD 56355 · 2023-058AQ

PAYLOAD ACTIVE UNKNOWN

§ Identity

Operator
Country
US
Launch date
2023-04-27
Launch site
AFWTR
Launch vehicle
Mass (kg)
RCS (m²)

Purposes: comms

External: N2YO · Heavens-Above · Gunter

§ Orbital elements

Epoch: 2026-05-25T04:00:03.998880Z

Period
94.58 min
Inclination
97.5225°
Eccentricity
0.0001409
Mean motion
15.22534271 rev/d
Perigee alt
497.2 km
Apogee alt
499.2 km
Semi-major
6,876.3 km
B*
-6.7094e-4
RAAN
145.3885°
Arg perigee
83.7718°
Mean anomaly
275.1661°
Rev number
577

§ Raw data

STARLINK-55331 56355U 23058AQ  26145.16671295 -.00015586  00000+0 -67094-3 0  99922 56355  97.5225 145.3885 0001409  83.7718 275.1661 15.22534271  5777

JSON: /api/v1/satellites/56355 · /tle

For live sub-satellite position, see the globe view (requires WebGL).

§ Visibility from observer

Set your observer location to see the next 7 days of passes ≥ 10°. The values pass through the URL so the page stays shareable.

No JS? Fill the form by hand. The geolocation button needs JavaScript.